This is the latest recevied weather packets stored in our database for station/object K8RRT. If no packets are shown the sender has not sent any weather packets the latest 10 day(s).
| Time | Temp. | Humidity | Pressure | Rain* | Wind** | Luminosity | Snow |
|---|---|---|---|---|---|---|---|
| 1787852891 | 29.44° C | 70% | 1010.5 hPa | 0 mm | - | 237 W/m² | - |
| 1787852586 | 29.44° C | 70% | 1010.7 hPa | 0 mm | - | 536 W/m² | - |
| 1787852280 | 30° C | 71% | 1010.7 hPa | 0 mm | - | 829 W/m² | - |
| 1787851980 | 29.44° C | 70% | 1010.6 hPa | 0 mm | - | 833 W/m² | - |
| 1787851679 | 29.44° C | 71% | 1010.7 hPa | 0 mm | - | 283 W/m² | - |
| 1787851373 | 28.89° C | 74% | 1010.8 hPa | 0 mm | - | 487 W/m² | - |
| 1787851069 | 28.89° C | 70% | 1010.9 hPa | 0 mm | - | 808 W/m² | - |
| 1787850764 | 29.44° C | 71% | 1010.9 hPa | 0 mm | - | 262 W/m² | - |
| 1787850459 | 29.44° C | 71% | 1011 hPa | 0 mm | - | 773 W/m² | - |
| 1787850155 | 28.89° C | 73% | 1010.9 hPa | 0 mm | - | 611 W/m² | - |
| 1787849854 | 28.89° C | 71% | 1011.2 hPa | 0 mm | - | 725 W/m² | - |
| 1787849550 | 28.89° C | 73% | 1011.1 hPa | 0 mm | - | 733 W/m² | - |
| 1787849248 | 28.89° C | 71% | 1010.8 hPa | 0 mm | - | 806 W/m² | - |
| 1787848948 | 28.89° C | 71% | 1011 hPa | 0 mm | - | 774 W/m² | - |
| 1787848642 | 28.89° C | 70% | 1011.3 hPa | 0 mm | - | 762 W/m² | - |
| 1787848337 | 28.89° C | 70% | 1011.2 hPa | 0 mm | - | 749 W/m² | - |
| 1787848032 | 28.89° C | 70% | 1011.3 hPa | 0 mm | - | 765 W/m² | - |
| 1787847732 | 28.33° C | 76% | 1011.3 hPa | 0 mm | - | 750 W/m² | - |
| 1787847427 | 27.78° C | 72% | 1011.5 hPa | 0 mm | - | 719 W/m² | - |
| 1787847122 | 27.78° C | 71% | 1011.5 hPa | 0 mm | - | 721 W/m² | - |
| 1787846819 | 27.78° C | 73% | 1011.5 hPa | 0 mm | - | 640 W/m² | - |
| 1787846513 | 27.78° C | 74% | 1011.6 hPa | 0 mm | - | 766 W/m² | - |
| 1787846209 | 27.78° C | 73% | 1011.7 hPa | 0 mm | - | 734 W/m² | - |
| 1787845905 | 27.78° C | 74% | 1011.5 hPa | 0 mm | - | 750 W/m² | - |
| 1787845605 | 27.22° C | 74% | 1011.6 hPa | 0 mm | - | 776 W/m² | - |
* Rain latest hour (hover to see other rain measurements)
** Current wind speed in m/s (hover to see current wind gust speed)